www.pogodaiklimat.ru

Погода и климат >> Архив погоды >> Ирландия >> Belmullet


ПОГОДА в Belmullet

  • Прогноз погоды в Belmullet
  • Монитор погоды в Belmullet
  • Климат города

АРХИВ ПОГОДЫ в Belmullet

Время (UTC), дата Ветер
(напр.,м/с)
 
Видим.   Явления Облачность Т
(С)
Тd
(С)
f
(%)
Тe
(С)
Тes
(С)
Комфортность P
(гПа)
Po
(гПа)
Тmin
(С)
Tmax
(С)
R
(мм)
R24
(мм)
S
(см)
16 11.10 Ю 8 23 км н/о +12.8 +7.5 70 +10 +10 993.1 991.9
17 11.10 Ю 9 23 км н/о +12.3 +7.0 70 +9 +9 993.0 991.8
18 11.10 Ю 8 22 км {ливн. осадки} н/о +11.6 +6.3 70 +8 +8 993.9 992.7 +13.6 0.6
20 11.10 ЮВ 5 19 км н/о +10.1 +5.7 74 +7 +7 992.3 991.2
19 11.10 Ю 8 18 км н/о +11.6 +8.2 80 +8 +8 994.1 992.9
21 11.10 В 6 18 км н/о +10.6 +6.5 76 +7 +7 991.0 989.9
22 11.10 ЮВ 8 23 км н/о +11.2 +7.1 76 +8 +8 988.7 987.5
23 11.10 ЮВ 9 25 км слаб. морось н/о +11.9 +6.8 71 +9 +9 986.1 985.0
00 12.10 ЮВ 9 7000 м слаб. дождь н/о +10.8 +8.3 85 +7 +7 982.5 981.4 2
02 12.10 ЮВ 11
{23}
6000 м слаб. ливневой дождь н/о +10.7 +9.4 92 +6 +6 975.9 974.7
01 12.10 ЮВ 12
{21}
10 км слаб. дождь н/о +10.8 +8.5 86 +6 +6 978.4 977.2
03 12.10 Ю 13
{23}
11 км слаб. ливневой дождь н/о +11.9 +10.5 91 +8 +8 975.3 974.1
04 12.10 Ю 21
{27}
10 км в посл. час дождь {ливн. осадки} н/о +13.6 +7.7 67 +9 +9 975.4 974.2
05 12.10 Ю 19
{26}
10 км в посл. час дождь {ливн. осадки} н/о +12.5 +6.6 67 +8 +8 976.1 975.0
06 12.10 Ю 23
{31}
6000 м дымка {ливн. осадки, дождь} н/о +13.2 +6.4 63 +9 +9 975.7 974.6 +9.7 6
08 12.10 Ю 23
{32}
н/о н/о +13.4 +7.7 68 +9 +9 977.0 975.8
07 12.10 Ю 20
{35}
5000 м слаб. ливневой дождь {дымка} н/о +13.4 +7.0 65 +9 +9 975.8 974.6
09 12.10 Ю 23
{32}
н/о н/о +13.5 +6.8 64 +9 +9 978.0 976.9
10 12.10 Ю 20
{35}
н/о н/о +13.9 +8.9 72 +10 +10 978.9 977.8
11 12.10 Ю 18
{29}
9000 м дымка н/о +14.1 +8.4 69 +10 +10 979.7 978.5
12 12.10 Ю 18
{28}
9000 м дымка н/о +14.3 +9.1 71 +11 +11 980.5 979.4 0.0
14 12.10 ЮЗ 19
{28}
12 км н/о +14.4 +8.0 65 +11 +11 981.9 980.8
13 12.10 ЮЗ 21
{27}
13 км н/о +14.3 +7.8 65 +10 +10 981.1 979.9
15 12.10 ЮЗ 19
{30}
12 км н/о +14.5 +8.2 66 +11 +11 983.0 981.9
16 12.10 ЮЗ 18
{27}
14 км н/о +13.5 +8.7 73 +9 +9 985.0 983.8
17 12.10 ЮЗ 14
{23}
11 км н/о +12.3 +9.5 83 +8 +8 987.0 985.9
18 12.10 ЮЗ 12
{20}
11 км н/о +12.0 +8.6 80 +8 +8 989.5 988.3 +14.9 0.0
20 12.10 ЮЗ 10 16 км н/о +12.1 +7.8 75 +9 +9 993.7 992.6
19 12.10 ЮЗ 11
{18}
16 км н/о +12.2 +8.2 77 +8 +8 991.9 990.8
21 12.10 ЮЗ 8 16 км н/о +12.0 +6.8 70 +9 +9 994.7 993.5
22 12.10 ЮЗ 5 15 км н/о +11.9 +7.9 76 +9 +9 996.1 995.0
23 12.10 ЮЗ 5 17 км н/о +11.8 +7.9 77 +9 +9 996.6 995.5
00 13.10 ЮЗ 4 15 км н/о +11.6 +7.9 78 +9 +9 997.0 995.9
02 13.10 ЮЗ 3 12 км слаб. ливневой дождь н/о +10.9 +9.2 89 +9 +9 997.7 996.6
01 13.10 ЮЗ 3 20 км н/о +11.3 +8.5 83 +9 +9 997.6 996.4
03 13.10 ЮВ 1 9000 м дымка {ливн. осадки} н/о +10.2 +8.7 90 +10 +10 997.6 996.5
04 13.10 В 2 11 км н/о +9.9 +8.2 89 +8 +8 997.9 996.7
05 13.10 В 1 20 км н/о +9.9 +8.2 89 +9 +9 997.7 996.5
06 13.10 СВ 2 20 км {ливн. осадки, дымка} н/о +9.6 +8.2 91 +8 +8 997.9 996.7 +9.5 0.2
08 13.10 С 1 12 км слаб. ливневой дождь н/о +9.4 +8.4 93 +9 +9 997.9 996.8
07 13.10 СВ 2 13 км слаб. ливневой дождь н/о +9.5 +8.3 92 +8 +8 997.7 996.5
09 13.10 СВ 2 11 км слаб. ливневой дождь н/о +10.0 +9.2 95 +8 +8 997.5 996.3
10 13.10 С 2 13 км н/о +10.9 +10.0 94 +9 +9 997.4 996.2
11 13.10 СВ 4 7000 м морось н/о +10.2 +9.4 95 +7 +7 997.3 996.1
12 13.10 С 5 26 км в посл. час морось {ливн. осадки} н/о +10.5 +8.9 90 +7 +7 997.4 996.3 2
14 13.10 С 4 11 км н/о +11.0 +8.8 86 +9 +9 997.8 996.6
13 13.10 С 4 22 км слаб. ливневой дождь н/о +10.8 +8.9 88 +8 +8 997.5 996.3
15 13.10 С 4 24 км в посл. час морось {ливн. осадки} н/о +10.8 +8.7 87 +8 +8 998.0 996.8
16 13.10 СЗ 4 18 км слаб. ливневой дождь н/о +10.5 +8.1 85 +8 +8 998.8 997.6
17 13.10 СЗ 4 23 км н/о +10.3 +7.4 82 +8 +8 999.8 998.6
18 13.10 СЗ 4 9000 м дымка {ливн. осадки, морось} н/о +9.9 +6.4 79 +7 +7 1001.1 1000.0 +11.1 3
20 13.10 СЗ 4 30 км н/о +9.5 +5.6 77 +7 +7 1003.1 1002.0
19 13.10 СЗ 4 27 км в посл. час морось {ливн. осадки} н/о +9.5 +6.7 83 +7 +7 1002.3 1001.2
21 13.10 СЗ 5 25 км {ливн. осадки} н/о +9.5 +5.7 77 +6 +6 1004.1 1003.0
22 13.10 З 3 30 км н/о +8.4 +5.1 80 +6 +6 1004.8 1003.6
23 13.10 З 4 30 км н/о +8.7 +4.9 77 +6 +6 1005.4 1004.2
00 14.10 З 4 35 км {ливн. осадки} н/о +9.0 +4.0 71 +6 +6 1005.9 1004.8 0.0
02 14.10 ЮЗ 3 16 км н/о +8.1 +3.8 74 +6 +6 1006.7 1005.5
01 14.10 З 2 30 км н/о +7.9 +4.1 77 +6 +6 1006.4 1005.2
03 14.10 ЮЗ 3 20 км н/о +7.7 +3.7 76 +5 +5 1006.8 1005.6
04 14.10 ЮЗ 4 35 км н/о +8.1 +4.0 75 +5 +5 1007.0 1005.8
05 14.10 ЮЗ 3 19 км н/о +7.7 +4.3 79 +5 +5 1006.7 1005.5
06 14.10 ЮЗ 3 30 км н/о +7.9 +4.1 77 +5 +5 1006.9 1005.7 +7.4 0.0
08 14.10 Ю 3 40 км н/о +8.5 +5.4 81 +6 +6 1007.7 1006.5
07 14.10 Ю 5 45 км н/о +8.4 +5.3 81 +5 +5 1007.7 1006.5
09 14.10 ЮЗ 5 35 км н/о +9.9 +6.0 77 +7 +7 1007.8 1006.6
10 14.10 Ю 6 35 км н/о +11.7 +6.0 68 +9 +9 1007.4 1006.2
11 14.10 ЮЗ 7 30 км н/о +12.2 +5.6 64 +9 +9 1007.4 1006.2
12 14.10 ЮЗ 7 28 км н/о +12.4 +5.4 62 +10 +10 1007.6 1006.4
14 14.10 Ю 8 28 км н/о +13.1 +4.8 57 +10 +10 1007.7 1006.6
13 14.10 ЮЗ 7 30 км н/о +12.6 +6.6 67 +10 +10 1007.7 1006.5
15 14.10 ЮЗ 7 35 км н/о +12.9 +5.8 62 +10 +10 1007.9 1006.7
16 14.10 ЮЗ 6 35 км н/о +12.3 +6.0 65 +10 +10 1008.1 1007.0
17 14.10 ЮЗ 3 35 км н/о +10.8 +6.3 74 +9 +9 1008.6 1007.4
18 14.10 ЮЗ 3 40 км н/о +9.3 +5.9 79 +7 +7 1009.2 1008.1 +13.3
20 14.10 Ю 6 45 км н/о +9.9 +7.2 83 +6 +6 1010.1 1008.9
19 14.10 Ю 4 35 км н/о +10.2 +6.8 79 +8 +8 1009.6 1008.4
21 14.10 Ю 6 30 км н/о +9.7 +7.2 84 +6 +6 1010.6 1009.4
22 14.10 ЮВ 3 35 км н/о +9.0 +6.6 85 +7 +7 1011.1 1010.0
23 14.10 Ю 5 40 км н/о +9.6 +7.1 84 +6 +6 1011.3 1010.2
00 15.10 Ю 5 35 км н/о +10.0 +7.8 86 +7 +7 1012.0 1010.8
02 15.10 Ю 4 28 км н/о +9.9 +7.6 86 +7 +7 1012.3 1011.1
01 15.10 Ю 4 30 км н/о +9.9 +8.0 88 +7 +7 1012.4 1011.2
03 15.10 ЮЗ 4 10 км слаб. дождь н/о +9.5 +7.4 87 +7 +7 1012.4 1011.2
04 15.10 Ю 4 18 км в посл. час дождь {ливн. осадки} н/о +9.4 +7.7 89 +6 +6 1012.8 1011.6
05 15.10 ЮВ 1 45 км н/о +8.5 +6.9 90 +8 +8 1013.0 1011.8
06 15.10 ЮВ 2 45 км {ливн. осадки, дождь} н/о +7.2 +6.0 92 +5 +5 1013.5 1012.3 +7.2 0.8
08 15.10 ЮВ 3 29 км н/о +8.9 +7.7 92 +6 +6 1014.3 1013.1
07 15.10 ЮВ 3 35 км н/о +8.0 +6.9 93 +5 +5 1014.0 1012.8
09 15.10 ЮВ 3 26 км н/о +10.6 +9.0 90 +8 +8 1014.4 1013.3
10 15.10 Ю 5 30 км н/о +12.0 +9.1 82 +10 +10 1014.6 1013.4
11 15.10 Ю 5 30 км н/о +13.4 +9.4 77 +11 +11 1014.4 1013.2
12 15.10 Ю 5 30 км н/о +14.7 +9.1 69 +13 +13 1013.9 1012.7
14 15.10 Ю 6 35 км н/о +13.8 +7.0 64 +12 +12 1013.0 1011.8
13 15.10 Ю 7 27 км н/о +13.3 +8.4 72 +11 +11 1013.4 1012.2
15 15.10 Ю 5 29 км н/о +13.8 +8.4 70 +12 +12 1012.3 1011.1
16 15.10 Ю 5 30 км н/о +13.4 +8.3 71 +12 +12 1011.8 1010.6
17 15.10 Ю 7 45 км н/о +12.0 +6.7 70 +9 +9 1011.4 1010.3
18 15.10 Ю 6 40 км н/о +11.4 +6.6 72 +9 +9 1010.8 1009.6 +15.0
20 15.10 ЮВ 7 40 км н/о +10.8 +6.1 73 +7 +7 1010.0 1008.9
19 15.10 Ю 8 45 км н/о +11.2 +6.6 73 +8 +8 1010.8 1009.7
21 15.10 Ю 9 45 км н/о +11.3 +6.6 73 +8 +8 1009.4 1008.3
22 15.10 Ю 11 30 км н/о +11.7 +7.7 76 +8 +8 1008.5 1007.4
23 15.10 Ю 11 26 км н/о +11.9 +7.9 76 +8 +8 1007.9 1006.7
00 16.10 Ю 12 28 км н/о +11.9 +8.5 80 +8 +8 1006.7 1005.6
02 16.10 Ю 13
{18}
22 км в посл. час морось н/о +11.9 +9.1 83 +8 +8 1005.0 1003.8
01 16.10 Ю 13 25 км н/о +11.9 +8.8 81 +8 +8 1006.2 1005.0
03 16.10 Ю 14
{18}
7000 м слаб. ливневой дождь {морось} н/о +11.7 +10.0 89 +7 +7 1004.2 1003.1
04 16.10 Ю 13
{19}
5000 м слаб. ливневой дождь н/о +11.6 +10.6 94 +7 +7 1003.1 1001.9
05 16.10 Ю 15
{20}
4200 м слаб. ливневой дождь н/о +12.4 +11.5 94 +8 +8 1002.4 1001.2
06 16.10 Ю 13
{21}
7000 м слаб. морось {ливн. осадки, дождь} н/о +12.8 +12.3 97 +9 +9 1002.2 1001.1 +10.8 3
08 16.10 ЮЗ 9
{19}
9000 м в посл. час дождь {ливн. осадки} н/о +12.8 +11.9 94 +10 +10 1003.7 1002.5
07 16.10 ЮЗ 15
{21}
5000 м слаб. ливневой дождь н/о +13.5 +12.7 95 +10 +10 1002.7 1001.5
09 16.10 ЮЗ 9 10 км {ливн. осадки} н/о +13.3 +11.5 89 +10 +10 1004.5 1003.3
10 16.10 ЮЗ 9 9000 м дымка н/о +13.7 +10.9 83 +11 +11 1005.0 1003.8
11 16.10 ЮЗ 11 9000 м дымка н/о +13.7 +10.5 81 +11 +11 1005.3 1004.2
12 16.10 ЮЗ 12 9000 м дымка {ливн. осадки} н/о +14.2 +10.8 80 +11 +11 1005.8 1004.6 0.6
14 16.10 ЮЗ 12 10 км н/о +14.3 +10.9 80 +11 +11 1006.2 1005.1
13 16.10 ЮЗ 11 9000 м дымка н/о +14.0 +10.8 81 +11 +11 1006.1 1004.9
15 16.10 ЮЗ 12 10 км н/о +13.9 +10.8 82 +11 +11 1006.3 1005.2
16 16.10 ЮЗ 10 9000 м дымка н/о +13.8 +11.1 84 +11 +11 1006.4 1005.3
17 16.10 ЮЗ 8 8000 м дымка н/о +12.9 +10.9 88 +10 +10 1007.0 1005.9
18 16.10 ЮЗ 7 8000 м дымка н/о +11.8 +9.9 88 +9 +9 1008.1 1006.9 +14.6 0.6
20 16.10 ЮЗ 5 9000 м дымка н/о +11.3 +9.7 90 +9 +9 1009.3 1008.1
19 16.10 ЮЗ 6 13 км н/о +11.6 +9.9 89 +9 +9 1008.9 1007.7
21 16.10 ЮЗ 6 13 км н/о +11.6 +9.4 86 +9 +9 1009.9 1008.7
22 16.10 ЮЗ 6 13 км н/о +12.0 +9.9 87 +9 +9 1010.3 1009.1
23 16.10 ЮЗ 5 12 км н/о +11.3 +9.5 89 +9 +9 1010.7 1009.5
00 17.10 З 4 14 км в посл. час дождь {ливн. осадки, дымка} н/о +10.6 +9.3 92 +8 +8 1011.2 1010.1 0.2
02 17.10 З 4 11 км н/о +9.8 +7.8 87 +7 +7 1013.2 1012.0
01 17.10 СЗ 5 14 км н/о +10.3 +9.0 92 +7 +7 1012.2 1011.0
03 17.10 СЗ 3 14 км н/о +9.4 +7.2 86 +7 +7 1013.8 1012.6
04 17.10 СЗ 5 19 км н/о +9.8 +5.4 74 +7 +7 1014.5 1013.4
05 17.10 З 4 19 км н/о +8.5 +5.0 79 +5 +5 1015.5 1014.3
06 17.10 З 3 17 км н/о +8.6 +4.7 76 +6 +6 1016.6 1015.4 +8.1 0.4
08 17.10 З 3 21 км н/о +9.1 +4.4 72 +7 +7 1018.9 1017.7
07 17.10 З 3 17 км н/о +8.6 +4.3 74 +6 +6 1017.7 1016.5
09 17.10 З 4 25 км н/о +10.7 +5.7 71 +8 +8 1019.9 1018.8
10 17.10 СЗ 5 25 км н/о +11.6 +6.8 72 +9 +9 1021.0 1019.8
11 17.10 СЗ 5 26 км н/о +11.9 +5.7 66 +10 +10 1021.9 1020.7
12 17.10 З 3 27 км н/о +11.6 +5.0 64 +10 +10 1022.5 1021.3
14 17.10 З 5 27 км н/о +12.8 +5.0 59 +11 +11 1023.7 1022.6
13 17.10 З 4 23 км н/о +12.4 +6.0 65 +11 +11 1022.9 1021.7
15 17.10 СЗ 5 23 км н/о +13.0 +5.5 60 +11 +11 1024.3 1023.1
16 17.10 СЗ 4 18 км н/о +12.2 +5.8 65 +10 +10 1024.8 1023.6
17 17.10 СЗ 3 24 км н/о +11.4 +6.2 70 +10 +10 1025.8 1024.6
18 17.10 СЗ 3 5000 м дымка н/о +9.7 +5.8 77 +8 +8 1026.3 1025.1 +13.1
20 17.10 СЗ 2 2000 м дымка н/о +7.7 +5.1 84 +6 +6 1028.1 1026.9
19 17.10 СЗ 1 8000 м дымка н/о +8.9 +6.3 84 +8 +8 1027.2 1026.0
21 17.10 СЗ 2 17 км н/о +6.8 +4.3 84 +5 +5 1028.5 1027.2
22 17.10 З 2 24 км н/о +9.0 +5.8 80 +7 +7 1028.5 1027.3
23 17.10 З 2 18 км н/о +8.4 +5.3 81 +7 +7 1029.0 1027.8
00 18.10 ЮВ 2 18 км н/о +7.3 +5.4 88 +5 +5 1028.9 1027.7
02 18.10 ЮВ 2 20 км н/о +7.3 +6.1 92 +5 +5 1028.3 1027.1
01 18.10 В 1 19 км н/о +7.5 +6.0 90 +7 +7 1028.6 1027.3
03 18.10 Ю 1 20 км н/о +6.8 +5.5 91 +6 +6 1028.6 1027.4
04 18.10 ЮВ 2 17 км н/о +8.1 +6.9 92 +6 +6 1028.5 1027.3
05 18.10 Ю 1 23 км н/о +6.9 +5.7 92 +6 +6 1028.4 1027.2
06 18.10 ЮВ 3 18 км н/о +7.6 +6.6 93 +5 +5 1028.5 1027.3 +6.4
08 18.10 Ю 5 18 км н/о +8.8 +7.8 93 +5 +5 1028.3 1027.1
07 18.10 Ю 4 18 км н/о +8.7 +7.8 94 +5 +5 1028.5 1027.3
09 18.10 Ю 6 21 км н/о +10.3 +8.9 91 +7 +7 1028.1 1026.9
10 18.10 Ю 6 24 км н/о +10.9 +8.5 85 +8 +8 1027.8 1026.6
11 18.10 Ю 8 24 км н/о +11.6 +7.9 78 +8 +8 1027.2 1026.0
12 18.10 Ю 8 30 км н/о +11.6 +7.2 74 +8 +8 1026.8 1025.7
14 18.10 ЮЗ 9 35 км н/о +12.0 +6.5 69 +9 +9 1025.5 1024.3
13 18.10 Ю 9 30 км н/о +11.7 +6.7 71 +8 +8 1026.2 1025.0

 

Местоположение метеостанции Belmullet (Ирландия): широта 54.23 долгота -10.00 высота над уровнем моря 9 м.

В архиве по умолчанию представлена погода в Belmullet за последнюю неделю. Архивные данные за месяц целиком и за предыдущие месяцы, начиная с января 2011 года, Вы можете получить, выбрав интересующий диапазон дат из раскрывающегося списка и нажав кнопку "Ввод!".


*Определитесь, кто Вы:
робот инопланетянин человек

Внимание! Время в таблицах - всемирное. Для получения местного времени необходимо прибавить поправку, которая в Belmullet равна 0 ч.

Смотрите также архив погоды в соседних городах и на ближайших метеорологических станциях:

Погода в Knock Airport (Ирландия) (85 км)
Погода в Claremorris (Ирландия) (88 км)
Погода в Mace Head (Ирландия) (101 км)
Погода в Finner (Ирландия) (118 км)
Погода в Thomastown (Великобритания) (157 км)
Погода в Castlederg (Великобритания) (165 км)
Погода в Ballyhaise, Cavan (Ирландия) (176 км)
Погода в Shannon Airport (Ирландия) (186 км)
Погода в Gurteen (Ирландия) (187 км)
Погода в Mullingar (Ирландия) (189 км)

Пояснения к столбцам:

Ветер - указаны скорость ветра в м/с - средняя за 10 мин, порывы в срок и между сроками (в фигурных скобках) и направление, откуда дует ветер: С - северный, СВ - северо-восточный, В - восточный, ЮВ - юго-восточный, Ю - южный, ЮЗ - юго-западный, З - западный, СЗ - северо-западный.
Видимость - горизонтальная дальность видимости в метрах или километрах. При видимости от 1 до 10 км при отсутствии осадков обычно наблюдается дымка, при ухудшении видимости до 1 км и менее - туман. В сухую погоду видимость может ухудшаться дымом, пылью или мглою.
Явления - указаны атмосферные явления, наблюдавшиеся в срок или в последний час перед сроком; фигурными скобками обозначены явления, наблюдавшиеся между сроками (за 1-3 часа до срока); квадратными скобками обозначены град или гололедные отложения с указанием их диаметра в мм.
Облачность - указаны через наклонную черту общая и нижняя облачность в баллах и высота нижней границы облаков в метрах; квадратными скобками обозначены формы облаков: Ci - перистые, Cs - перисто-слоистые, Cc - перисто-кучевые, Ac - высококучевые, As - высокослоистые, Sc - слоисто-кучевые, Ns - слоисто-дождевые, Cu - кучевые, Cb - кучево-дождевые. Подробнее классификацию облаков см. в Атласе облаков (PDF).
T - Температура воздуха - температура, измеренная на высоте 2 м над землей.
Td - Температура точки росы - температура, при понижении до которой содержащийся в воздухе водяной пар достигнет насыщения.
f - Относительная влажность воздуха - влажноcть воздуха, измеренная на высоте 2 м над землей.
Te - Эффективная температура - температура, которую ощущает одетый по сезону человек в тени. Характеристика душности погоды. При расчете учитывается влияние влажности воздуха и скорости ветра на теплоощущения человека.
Tes - Эффективная температура на солнце - температура, которую ощущает человек, с поправкой на солнечный нагрев. Характеристика знойности погоды. Зависит от высоты солнца над горизонтом, облачности и скорости ветра. Ночью, в пасмурную погоду, а также при ветре 12 м/с и более поправка равна нулю.
P - Атмосферное давление - приведенное к уровню моря атмосферное давление.
Po - Атмосферное давление - измеренное на уровне метеостанции атмосферное давление.
Tmin - Минимальная температура - минимум температуры воздуха на высоте 2 м над землей.
Tmax - Максимальная температура - максимум температуры воздуха на высоте 2 м над землей.
R - Количество осадков - Количество выпавших осадков за период времени, мм. При наведении курсора мыши на число - период времени, за который выпало указанное количество осадков.
R24 - Количество осадков - Количество выпавших осадков за 24 часа, мм.
S - Снежный покров - Высота снежного покрова, см. При наведении курсора мыши на число - состояние снежного покрова и степень покрытия местности в баллах.